Weather reports worldwide

Advertisment
St. Petersburg, fl, United States of America (2074787): temperature & dewpoint: 28.06.2020 16:00:00 - 04.07.2020 16:00:00 (EDT)St. Petersburg, fl, United States of America (2074787): wind speed & gusts: 28.06.2020 16:00:00 - 04.07.2020 16:00:00 (EDT)St. Petersburg, fl, United States of America (2074787): wind direction: 28.06.2020 16:00:00 - 04.07.2020 16:00:00 (EDT)St. Petersburg, fl, United States of America (2074787): reduced air pressure: 28.06.2020 16:00:00 - 04.07.2020 16:00:00 (EDT)St. Petersburg, fl, United States of America (2074787): visibility: 28.06.2020 16:00:00 - 04.07.2020 16:00:00 (EDT)St. Petersburg, fl, United States of America (2074787): precipitation: 28.06.2020 16:00:00 - 04.07.2020 16:00:00 (EDT)
Date & Time tt [°C] td [°C] ff [km/h] ff [kn] fx [km/h] fx [kn] dd ppp [hPa] vv [km] rr [mm]
04.07.2020 16:00:00 32,8 23,9 26 14 - - WSW 1013,4 16 0,0
04.07.2020 15:00:00 32,2 23,3 22 12 - - SW 1013,5 16 -
04.07.2020 14:00:00 32,2 23,3 24 13 - - SW 1013,8 16 -
04.07.2020 13:00:00 33,3 23,9 22 12 - - SW 1014,2 16 -
04.07.2020 12:00:00 32,8 23,3 22 12 - - SW 1014,3 16 -
04.07.2020 11:00:00 31,7 23,9 15 8 - - SW 1014,2 16 -
04.07.2020 10:00:00 31,1 24,4 13 7 - - SSW 1013,8 16 -
04.07.2020 09:00:00 30,6 24,4 9 5 - - SSW 1013,7 16 -
04.07.2020 08:00:00 28,3 23,9 8 4 - - SSW 1013,7 16 -
04.07.2020 07:00:00 27,2 23,3 0 0 - - N 1013,4 16 -
04.07.2020 06:00:00 27,8 23,9 11 6 - - WSW 1012,9 16 -
04.07.2020 05:00:00 27,2 23,9 0 0 - - N 1012,7 16 -
04.07.2020 04:00:00 28,3 23,9 5 3 - - WSW 1012,7 16 -
04.07.2020 03:00:00 27,8 23,3 5 3 - - WNW 1013,3 16 -
04.07.2020 02:00:00 28,3 23,3 8 4 - - W 1013,6 16 -
04.07.2020 01:00:00 28,3 23,9 8 4 - - WSW 1014,0 16 -
04.07.2020 00:00:00 28,9 23,9 8 4 - - W 1014,1 16 -
03.07.2020 23:00:00 29,4 23,9 11 6 - - W 1013,8 16 -
03.07.2020 22:00:00 28,9 23,9 9 5 - - W 1013,6 16 -
03.07.2020 21:00:00 29,4 23,3 13 7 - - W 1013,2 16 -
03.07.2020 20:00:00 30,6 23,3 15 8 - - WNW 1013,3 16 -
03.07.2020 19:00:00 30,6 23,9 21 11 - - W 1012,6 16 -
03.07.2020 18:00:00 32,8 23,3 22 12 - - W 1012,2 16 -
03.07.2020 17:00:00 32,8 23,9 18 10 - - W 1012,7 16 -
03.07.2020 16:00:00 32,2 24,4 22 12 - - W 1013,5 16 -
03.07.2020 15:00:00 32,2 25,0 21 11 - - WSW 1013,9 16 -
03.07.2020 14:00:00 32,2 23,3 22 12 - - WNW 1014,8 16 -
03.07.2020 13:00:00 32,8 25,0 21 11 - - W 1015,0 16 -
03.07.2020 12:00:00 32,2 24,4 21 11 - - WSW 1014,9 16 -
03.07.2020 11:00:00 31,7 24,4 18 10 - - W 1014,6 16 -
03.07.2020 10:00:00 29,4 23,9 13 7 - - WSW 1014,6 16 -
03.07.2020 09:00:00 27,8 23,9 15 8 - - W 1014,6 16 0,0
03.07.2020 08:00:00 25,6 22,8 15 8 61 33 WNW 1014,5 15 0,0
03.07.2020 07:00:00 28,3 23,9 9 5 - - WSW 1013,9 16 -
03.07.2020 06:00:00 27,8 23,3 8 4 - - W 1013,4 16 -
03.07.2020 05:00:00 27,8 23,9 8 4 - - WSW 1013,0 16 -
03.07.2020 04:00:00 27,2 23,9 8 4 - - WSW 1013,2 16 -
03.07.2020 03:00:00 27,2 24,4 5 3 - - SW 1013,5 16 -
03.07.2020 02:00:00 27,8 24,4 5 3 - - WSW 1013,7 16 -
03.07.2020 01:00:00 28,3 24,4 9 5 - - W 1014,3 16 -
03.07.2020 00:00:00 28,3 24,4 11 6 - - W 1014,7 16 0,0
02.07.2020 23:00:00 29,4 23,3 11 6 - - WSW 1014,5 16 -
02.07.2020 22:00:00 30,0 24,4 15 8 - - WSW 1014,1 16 -
02.07.2020 21:00:00 30,0 23,9 16 9 - - WSW 1013,8 16 -
02.07.2020 20:00:00 30,6 23,9 16 9 - - WSW 1013,4 16 -
02.07.2020 19:00:00 31,7 23,3 24 13 - - WSW 1013,1 16 -
02.07.2020 18:00:00 32,8 21,7 18 10 - - W 1013,6 16 -
02.07.2020 17:00:00 33,3 23,3 22 12 - - W 1013,9 16 -
02.07.2020 16:00:00 33,3 22,2 22 12 - - W 1014,1 16 -
02.07.2020 15:00:00 33,3 23,3 22 12 - - W 1014,6 16 -
02.07.2020 14:00:00 33,9 23,9 21 11 - - W 1015,2 16 -
02.07.2020 13:00:00 33,3 23,3 21 11 - - WSW 1015,4 16 -
02.07.2020 12:00:00 32,8 23,3 13 7 - - WNW 1015,4 16 -
02.07.2020 11:00:00 32,2 23,9 16 9 - - W 1015,1 16 -
02.07.2020 10:00:00 32,2 24,4 13 7 - - W 1015,3 16 -
02.07.2020 09:00:00 31,1 24,4 18 10 - - WNW 1014,9 16 -
02.07.2020 08:00:00 29,4 24,4 9 5 - - W 1014,6 16 -
02.07.2020 07:00:00 27,2 22,8 0 0 - - N 1014,4 16 -
02.07.2020 06:00:00 27,2 23,3 11 6 - - SW 1013,9 16 -
02.07.2020 05:00:00 27,8 24,4 9 5 - - SSW 1014,1 16 -
02.07.2020 04:00:00 27,2 24,4 0 0 - - N 1014,2 16 -
02.07.2020 03:00:00 27,2 24,4 0 0 - - N 1014,4 16 -
02.07.2020 02:00:00 27,8 24,4 0 0 - - N 1014,7 16 -
02.07.2020 01:00:00 28,9 24,4 5 3 - - WSW 1014,8 16 -
02.07.2020 00:00:00 28,9 23,9 8 4 - - WSW 1015,7 16 -
01.07.2020 23:00:00 28,9 23,9 8 4 - - W 1015,5 16 -
01.07.2020 22:00:00 29,4 23,9 9 5 - - WNW 1014,8 16 -
01.07.2020 21:00:00 30,0 23,9 13 7 - - WNW 1014,8 16 -
01.07.2020 20:00:00 31,1 23,3 16 9 - - W 1014,3 16 -
01.07.2020 19:00:00 31,7 24,4 15 8 - - WNW 1014,6 16 -
01.07.2020 18:00:00 32,8 23,9 22 12 - - WNW 1014,8 16 -
01.07.2020 17:00:00 32,2 23,9 18 10 - - WNW 1014,6 16 -
01.07.2020 16:00:00 33,3 23,9 22 12 - - WNW 1014,7 16 -
01.07.2020 15:00:00 33,9 23,9 24 13 - - W 1015,5 16 -
01.07.2020 14:00:00 33,3 23,9 21 11 - - WSW 1015,7 16 -
01.07.2020 13:00:00 33,3 23,9 21 11 - - W 1015,6 16 -
01.07.2020 12:00:00 33,3 23,3 15 8 - - WNW 1015,8 16 -
01.07.2020 11:00:00 32,8 23,3 11 6 - - - 1015,8 16 -
01.07.2020 10:00:00 31,7 23,9 15 8 - - W 1016,0 16 -
01.07.2020 09:00:00 30,0 24,4 9 5 - - WSW 1015,7 16 -
01.07.2020 08:00:00 28,9 24,4 5 3 - - W 1015,4 16 -
01.07.2020 07:00:00 27,8 23,9 8 4 - - WSW 1015,0 16 -
01.07.2020 06:00:00 26,7 23,9 8 4 - - W 1014,3 16 -
01.07.2020 05:00:00 27,2 24,4 0 0 - - N 1014,0 16 -
01.07.2020 04:00:00 27,2 24,4 0 0 - - N 1014,0 16 -
01.07.2020 03:00:00 27,2 23,9 5 3 - - W 1014,5 16 -
01.07.2020 02:00:00 28,9 24,4 8 4 - - WSW 1014,8 16 -
01.07.2020 01:00:00 28,3 24,4 8 4 - - WNW 1015,5 16 -
01.07.2020 00:00:00 28,9 24,4 8 4 - - W 1015,7 16 -
30.06.2020 23:00:00 28,9 24,4 9 5 - - W 1015,6 16 -
30.06.2020 22:00:00 29,4 24,4 9 5 - - WNW 1015,3 16 -
30.06.2020 21:00:00 30,0 24,4 11 6 - - WNW 1015,2 16 -
30.06.2020 20:00:00 - - - - - - - - - -
30.06.2020 19:00:00 31,7 23,9 18 10 - - WNW 1014,7 16 -
30.06.2020 18:00:00 32,8 24,4 21 11 - - WNW 1014,3 16 -
30.06.2020 17:00:00 33,3 23,3 21 11 - - W 1014,8 16 -
30.06.2020 16:00:00 33,9 23,3 18 10 - - WNW 1015,2 16 -
30.06.2020 15:00:00 33,9 24,4 21 11 - - W 1016,0 16 -
30.06.2020 14:00:00 33,9 23,3 16 9 - - WNW 1016,4 16 -
30.06.2020 13:00:00 33,9 23,9 18 10 - - NW 1016,7 16 -
30.06.2020 12:00:00 32,2 23,3 8 4 - - NW 1016,9 16 -
30.06.2020 11:00:00 30,6 24,4 9 5 - - WSW 1017,0 16 0,0
30.06.2020 10:00:00 31,7 23,9 5 3 - - NNW 1016,9 16 -
30.06.2020 09:00:00 31,1 25,0 8 4 - - NW 1016,8 16 -
30.06.2020 08:00:00 28,9 26,1 0 0 - - N 1016,6 16 -
30.06.2020 07:00:00 26,7 25,0 0 0 - - N 1015,9 16 -
30.06.2020 06:00:00 26,7 25,0 0 0 - - N 1015,2 16 -
30.06.2020 05:00:00 27,2 24,4 0 0 - - N 1014,9 16 -
30.06.2020 04:00:00 27,8 24,4 8 4 - - SSW 1015,1 16 -
30.06.2020 03:00:00 28,3 24,4 0 0 - - N 1015,4 16 -
30.06.2020 02:00:00 28,3 24,4 9 5 - - WNW 1015,6 16 -
30.06.2020 01:00:00 28,9 24,4 8 4 - - NW 1016,3 16 -
30.06.2020 00:00:00 28,9 24,4 9 5 - - WNW 1016,5 16 -
29.06.2020 23:00:00 29,4 25,0 5 3 - - W 1016,2 16 -
29.06.2020 22:00:00 29,4 25,0 8 4 - - W 1016,0 16 -
29.06.2020 21:00:00 30,0 24,4 8 4 - - NW 1016,1 16 -
29.06.2020 20:00:00 30,6 24,4 18 10 - - W 1014,9 16 -
29.06.2020 19:00:00 32,8 23,9 15 8 - - WNW 1015,8 16 -
29.06.2020 18:00:00 33,3 23,9 21 11 - - NW 1016,1 16 -
29.06.2020 17:00:00 34,4 22,8 18 10 - - WNW 1016,2 16 -
29.06.2020 16:00:00 33,9 23,3 15 8 - - W 1016,9 16 -
29.06.2020 15:00:00 33,9 23,3 16 9 - - NW 1017,5 16 -
29.06.2020 14:00:00 34,4 23,9 18 10 - - NNW 1017,7 16 -
29.06.2020 13:00:00 34,4 23,9 16 9 - - NW 1018,1 16 -
29.06.2020 12:00:00 33,3 24,4 11 6 - - - 1018,3 16 -
29.06.2020 11:00:00 31,7 23,9 8 4 - - NW 1018,0 16 -
29.06.2020 10:00:00 32,2 25,0 8 4 - - - 1018,1 16 -
29.06.2020 09:00:00 30,6 25,0 9 5 - - NW 1017,8 16 -
29.06.2020 08:00:00 28,9 26,1 0 0 - - N 1017,3 16 -
29.06.2020 07:00:00 26,7 24,4 0 0 - - N 1016,6 13 -
29.06.2020 06:00:00 27,2 25,0 0 0 - - N 1016,3 16 -
29.06.2020 05:00:00 27,2 24,4 0 0 - - N 1016,0 16 -
29.06.2020 04:00:00 27,8 24,4 0 0 - - N 1016,0 16 -
29.06.2020 03:00:00 27,8 25,0 0 0 - - N 1016,1 16 -
29.06.2020 02:00:00 28,3 24,4 0 0 - - N 1016,5 16 -
29.06.2020 01:00:00 27,8 24,4 0 0 - - N 1017,2 16 -
29.06.2020 00:00:00 28,9 23,9 5 3 - - W 1017,2 16 -
28.06.2020 23:00:00 28,9 23,9 5 3 - - WNW 1016,7 16 -
28.06.2020 22:00:00 29,4 23,9 5 3 - - WNW 1016,3 16 -
28.06.2020 21:00:00 29,4 24,4 8 4 - - WNW 1016,0 16 -
28.06.2020 20:00:00 30,6 25,0 9 5 - - NW 1016,2 16 -
28.06.2020 19:00:00 31,1 24,4 15 8 - - WNW 1015,9 16 -
28.06.2020 18:00:00 31,7 25,0 15 8 - - NW 1015,9 16 -
28.06.2020 17:00:00 32,2 25,0 15 8 - - NW 1016,4 16 -
28.06.2020 16:00:00 32,8 25,0 11 6 - - NNW 1016,6 16 -

tt = temperature
td = dewpoint
ff = wind speed
fx = gusts
dd = wind direction
ppp = reduced air pressure
vv = visibility
rr = precipitation

Next stations